Location: Arclight Observatory
(36.5667°N, 87.3333°W)
Time: 11:33:12
(UTC-05:00)

Hubble Space Telescope - Visible Passes

Search period start: 04 September 2015 00:00
Search period end: 14 September 2015 00:00
Orbit: 541 x 545 km, 28.5° (Epoch: 02 September)

Date Brightness Start Highest point End Pass type
(mag) Time Alt. Az. Time Alt. Az. Time Alt. Az.
04 Sep 3.0 04:53:15 13° S 04:54:18 14° SSE 04:56:34 10° SE visible
05 Sep 2.7 04:44:51 16° S 04:45:15 17° SSE 04:47:57 10° SE visible
06 Sep 2.6 04:36:26 19° SSE 04:36:26 19° SSE 04:39:13 10° ESE visible
07 Sep 2.6 04:28:01 20° SSE 04:28:01 20° SSE 04:30:22 10° ESE visible
08 Sep 2.8 04:19:36 19° SE 04:19:36 19° SE 04:21:29 10° ESE visible
08 Sep 2.2 05:55:31 10° WSW 05:58:58 25° S 06:02:24 10° SE visible
09 Sep 3.0 04:11:13 17° SE 04:11:13 17° SE 04:12:33 10° ESE visible
09 Sep 2.3 05:46:40 10° WSW 05:49:56 24° S 05:53:17 10° SE visible
10 Sep 3.4 04:02:52 14° SE 04:02:52 14° SE 04:03:34 10° ESE visible
10 Sep 2.3 05:38:19 13° SW 05:40:54 22° S 05:44:07 10° SE visible
11 Sep 2.4 05:30:02 15° SW 05:31:51 20° SSW 05:34:52 10° SE visible
12 Sep 2.5 05:21:48 16° SSW 05:22:47 17° SSW 05:25:31 10° SSE visible
13 Sep 2.7 05:13:39 15° SSW 05:13:44 15° SSW 05:16:03 10° SSE visible
